(72848) = 1988 AC2 = 2001 HV36

Discovered at Socorro on 2001-04-29 by LINEAR.

Orbit

Orbit type: Main Belt

Note: WebGL enabled browser required.

epoch2023-09-13.0
epoch JD2460200.5
perihelion date2021-06-28.31578
perihelion JD2459393.81578
argument of perihelion (°)58.00488
ascending node (°)56.28470
inclination (°)16.51200
eccentricity0.0591186
perihelion distance (AU)2.9267306
Tisserand w.r.t. Jupiter3.2
ΔV w.r.t. Earth (km/sec)11.8
semimajor axis (AU)3.1106264
mean anomaly (°)144.92243
mean daily motion (°/day)0.17965200
aphelion distance (AU)3.295
period (years)5.49
P-vector [x]-0.38225606
P-vector [y]0.72257228
P-vector [z]0.57599445
Q-vector [x]-0.89330249
Q-vector [y]-0.44843448
Q-vector [z]-0.03028494
absolute magnitude14.25
phase slope0.15
uncertainty0
referenceMPEC 2024-A48
observations used1293
oppositions22
arc length (days)12967
first opposition used1988
last opposition used2023
residual rms (arc-secs)0.73
perturbers coarse indicatorM-v
perturbers precise indicator003Ek
first observation date used1988-01-11.0
last observation date used2023-07-14.0
computer nameMPCLINUX
JD of orbit computation2456966.872815
perihelion JD uncertainty (days)4.2187E-04
argument of perihelion uncertainty (°)7.9697E-05
ascending node uncertainty (°)1.8585E-05
inclination uncertainty (°)7.7655E-06
eccentricity uncertainty 5.0843E-08
perihelion distance uncertainty (AU)1.6194E-07
Minimum Orbit Intersection Distances (in AU)
for orbit epoch: 2460200.5, reference: E2024-A48
Mercury2.60467
Venus2.22659
Earth1.97469
Mars1.38449
Jupiter1.92252
Saturn6.11637
Uranus15.5247
Neptune26.7616

Observations

1319 total observations over interval: 1988 01 11.74132 – 2023 07 14.142816
These data are available for download (format description).

Date (UT) J2000 RA J2000 Dec Magn Location Ref
1988 01 11.74132 04 03 30.37 +29 20 56.3 20.1   033 – Karl Schwarzschild Observatory, Tautenburg MPC 12867
1988 01 11.79340 04 03 29.32 +29 20 58.3   033 – Karl Schwarzschild Observatory, Tautenburg MPC 12868
1992 10 21.30139 02 11 56.05 +01 27 01.5   261 – Palomar Mountain-DSS MPS 71321
1992 10 21.34306 02 11 53.83 +01 26 58.9   261 – Palomar Mountain-DSS MPS 71321
1994 03 14.17153 07 36 49.87 +41 09 23.9   261 – Palomar Mountain-DSS MPS 71321
1994 03 14.20278 07 36 50.11 +41 09 14.9   261 – Palomar Mountain-DSS MPS 71321
1998 09 20.84910 05 01 39.63 +23 06 09.9   327 – Peking Observatory, Xinglong Station MPS 52335
1998 09 20.85581 05 01 39.90 +23 06 10.7 20.2   327 – Peking Observatory, Xinglong Station MPS 52335
1998 09 20.86269 05 01 40.07 +23 06 12.9   327 – Peking Observatory, Xinglong Station MPS 52335
2000 03 04.32330 11 29 37.64 +28 57 01.9 19.0   704 – Lincoln Laboratory ETS, New Mexico MPS 52335
2000 03 04.33677 11 29 36.85 +28 57 04.7 19.2   704 – Lincoln Laboratory ETS, New Mexico MPS 52335
2000 03 04.35049 11 29 36.12 +28 57 08.2 19.0   704 – Lincoln Laboratory ETS, New Mexico MPS 52335
2000 03 04.36419 11 29 35.31 +28 57 10.7 19.3   704 – Lincoln Laboratory ETS, New Mexico MPS 52335
2000 03 04.37814 11 29 34.56 +28 57 13.6 19.4   704 – Lincoln Laboratory ETS, New Mexico MPS 52335
2001 04 29.32135 16 13 54.91 -21 34 38.1 18.8   704 – Lincoln Laboratory ETS, New Mexico MPS 30361
2001 04 29.33514 16 13 54.20 -21 34 38.0 19.0   704 – Lincoln Laboratory ETS, New Mexico MPS 30361
2001 04 29.34870 16 13 53.56 -21 34 40.4 19.1   704 – Lincoln Laboratory ETS, New Mexico MPS 30361
2001 04 29.37606 16 13 52.41 -21 34 44.5 18.8   704 – Lincoln Laboratory ETS, New Mexico MPS 30361
2001 04 30.35069 16 13 09.66 -21 37 03.8 18.8   704 – Lincoln Laboratory ETS, New Mexico MPS 30362
2001 04 30.36422 16 13 09.07 -21 37 06.4 19.1   704 – Lincoln Laboratory ETS, New Mexico MPS 30362
2001 04 30.40527 16 13 07.16 -21 37 10.4 19.4   704 – Lincoln Laboratory ETS, New Mexico MPS 30362
2001 05 23.18301 15 53 14.30 -22 21 04.6 18.0 R 807 – Cerro Tololo Observatory, La Serena MPS 31736
2001 05 23.24703 15 53 10.58 -22 21 10.2   807 – Cerro Tololo Observatory, La Serena MPS 31736
2001 05 24.28288 15 52 12.44 -22 22 45.2 18.3   704 – Lincoln Laboratory ETS, New Mexico MPS 31305
2001 05 24.29475 15 52 11.78 -22 22 46.3 18.5   704 – Lincoln Laboratory ETS, New Mexico MPS 31305
2001 05 24.30662 15 52 11.12 -22 22 47.2 18.3   704 – Lincoln Laboratory ETS, New Mexico MPS 31305
2001 05 24.31848 15 52 10.38 -22 22 48.2 18.3   704 – Lincoln Laboratory ETS, New Mexico MPS 31305
2001 05 24.33035 15 52 09.70 -22 22 49.0 17.9   704 – Lincoln Laboratory ETS, New Mexico MPS 31305
2001 05 26.27297 15 50 20.94 -22 25 35.4 18.3   704 – Lincoln Laboratory ETS, New Mexico MPS 31305
2001 05 26.28439 15 50 20.19 -22 25 36.0 18.8   704 – Lincoln Laboratory ETS, New Mexico MPS 31305
2001 05 26.29718 15 50 19.59 -22 25 36.1 19.3   704 – Lincoln Laboratory ETS, New Mexico MPS 31305
2001 05 26.30907 15 50 18.88 -22 25 37.3 19.0   704 – Lincoln Laboratory ETS, New Mexico MPS 31305
2003 09 19.35977 02 35 01.13 +02 28 55.7 18.9 C 704 – Lincoln Laboratory ETS, New Mexico MPS 290996
2003 09 19.37223 02 35 00.87 +02 28 54.2 18.7 C 704 – Lincoln Laboratory ETS, New Mexico MPS 290996
2003 09 19.38486 02 35 00.62 +02 28 53.8 19.2 C 704 – Lincoln Laboratory ETS, New Mexico MPS 290996
2003 09 19.39714 02 35 00.39 +02 28 54.1 18.9 C 704 – Lincoln Laboratory ETS, New Mexico MPS 290996
2003 09 19.40945 02 35 00.04 +02 28 52.5 18.7 C 704 – Lincoln Laboratory ETS, New Mexico MPS 290996
2003 09 22.37116 02 33 47.88 +02 25 14.4 20.0 R 683 – Goodricke-Pigott Observatory, Tucson MPS 86180
2003 09 22.38455 02 33 47.50 +02 25 12.5 20.8 R 683 – Goodricke-Pigott Observatory, Tucson MPS 86180
2003 09 22.39794 02 33 46.70 +02 25 10.2 19.3 R 683 – Goodricke-Pigott Observatory, Tucson MPS 86180
2003 10 04.33413 02 27 03.83 +02 08 52.6 19.5 R 683 – Goodricke-Pigott Observatory, Tucson MPS 87300
2003 10 04.34753 02 27 03.31 +02 08 51.9 19.6 R 683 – Goodricke-Pigott Observatory, Tucson MPS 87300
2003 10 04.36093 02 27 02.66 +02 08 51.3 20.1 R 683 – Goodricke-Pigott Observatory, Tucson MPS 87300
2003 10 06.32517 02 25 40.79 +02 06 08.0 19.1 R 683 – Goodricke-Pigott Observatory, Tucson MPS 87300
2003 10 06.33857 02 25 40.16 +02 06 08.0 20.6 R 683 – Goodricke-Pigott Observatory, Tucson MPS 87300
2003 10 06.35198 02 25 39.70 +02 06 07.8 20.7 R 683 – Goodricke-Pigott Observatory, Tucson MPS 87300
2003 10 16.29428 02 17 53.47 +01 54 00.3 19.2 R 683 – Goodricke-Pigott Observatory, Tucson MPS 87940
2003 10 16.30768 02 17 52.82 +01 54 00.4 19.9 R 683 – Goodricke-Pigott Observatory, Tucson MPS 87940
2003 10 16.32110 02 17 52.05 +01 53 57.5 21.4 R 683 – Goodricke-Pigott Observatory, Tucson MPS 87940
2003 10 16.45153 02 17 45.39 +01 53 49.7 19.7   608 – Haleakala-AMOS MPS 87300
2003 10 16.46288 02 17 44.86 +01 53 49.2 20.5   608 – Haleakala-AMOS MPS 87300
2003 10 16.47346 02 17 44.30 +01 53 48.1 20.3   608 – Haleakala-AMOS MPS 87300
2003 10 17.29003 02 17 02.90 +01 52 58.5 19.8 R 683 – Goodricke-Pigott Observatory, Tucson MPS 89374
2003 10 17.30345 02 17 02.30 +01 52 58.5 20.9 R 683 – Goodricke-Pigott Observatory, Tucson MPS 89374
2003 10 17.31682 02 17 01.49 +01 52 58.3 20.6 R 683 – Goodricke-Pigott Observatory, Tucson MPS 89374
2003 10 19.28339 02 15 20.16 +01 51 10.8 20.3 R 683 – Goodricke-Pigott Observatory, Tucson MPS 89374
2003 10 19.29679 02 15 19.44 +01 51 10.8 21.1 R 683 – Goodricke-Pigott Observatory, Tucson MPS 89374
2003 10 19.31017 02 15 18.54 +01 51 09.9 21.9 R 683 – Goodricke-Pigott Observatory, Tucson MPS 89374
2003 10 20.28005 02 14 28.10 +01 50 21.1 19.9 R 683 – Goodricke-Pigott Observatory, Tucson MPS 89374
2003 10 20.29346 02 14 27.37 +01 50 20.4 20.0 R 683 – Goodricke-Pigott Observatory, Tucson MPS 89374
2003 10 20.30685 02 14 26.66 +01 50 20.0 20.0 R 683 – Goodricke-Pigott Observatory, Tucson MPS 89374
2003 10 20.31521 02 14 26.17 +01 50 18.8 17.8   704 – Lincoln Laboratory ETS, New Mexico MPS 87940
2003 10 20.32681 02 14 25.56 +01 50 18.8 18.7   704 – Lincoln Laboratory ETS, New Mexico MPS 87940
2003 10 20.33884 02 14 24.87 +01 50 17.9 18.8   704 – Lincoln Laboratory ETS, New Mexico MPS 87940
2003 10 20.35021 02 14 24.25 +01 50 17.7 18.6   704 – Lincoln Laboratory ETS, New Mexico MPS 87940
2003 10 20.36168 02 14 23.64 +01 50 16.9 18.6   704 – Lincoln Laboratory ETS, New Mexico MPS 87940
2003 10 21.28146 02 13 35.40 +01 49 35.2 18.9 V 691 – Steward Observatory, Kitt Peak-Spacewatch MPS 87940
2003 10 21.30811 02 13 34.00 +01 49 34.0 19.7 V 691 – Steward Observatory, Kitt Peak-Spacewatch MPS 87940
2003 10 21.33458 02 13 32.51 +01 49 32.8 19.2 V 691 – Steward Observatory, Kitt Peak-Spacewatch MPS 87940
2003 10 22.31203 02 12 40.78 +01 48 52.3 18.5   644 – Palomar Mountain/NEAT MPS 87940
2003 10 22.37485 02 12 37.37 +01 48 50.0 19.3   644 – Palomar Mountain/NEAT MPS 87940
2003 10 22.44263 02 12 33.68 +01 48 47.4 19.2   644 – Palomar Mountain/NEAT MPS 87940
2003 10 23.27002 02 11 49.85 +01 48 14.8 20.4 R 683 – Goodricke-Pigott Observatory, Tucson MPS 87940
2003 10 23.28345 02 11 48.99 +01 48 16.5 21.4 R 683 – Goodricke-Pigott Observatory, Tucson MPS 87940
2003 10 23.29681 02 11 48.44 +01 48 16.1 20.9 R 683 – Goodricke-Pigott Observatory, Tucson MPS 87940
2003 11 04.22989 02 01 10.91 +01 47 33.1 21.4 R 683 – Goodricke-Pigott Observatory, Tucson MPS 90832
2003 11 04.24331 02 01 10.39 +01 47 34.7 21.7 R 683 – Goodricke-Pigott Observatory, Tucson MPS 90832
2003 11 04.25669 02 01 09.67 +01 47 35.0 20.7 R 683 – Goodricke-Pigott Observatory, Tucson MPS 90832
2003 11 15.19366 01 52 13.89 +02 00 08.3 20.4 R 683 – Goodricke-Pigott Observatory, Tucson MPS 91613
2003 11 15.20706 01 52 13.19 +02 00 10.6 20.5 R 683 – Goodricke-Pigott Observatory, Tucson MPS 91613
2003 11 15.22046 01 52 12.59 +02 00 12.0 20.0 R 683 – Goodricke-Pigott Observatory, Tucson MPS 91613
2003 12 19.19850 01 38 04.92 +04 09 32.5 19.6   644 – Palomar Mountain/NEAT MPS 95595
2003 12 19.22012 01 38 04.85 +04 09 39.9 19.6   644 – Palomar Mountain/NEAT MPS 95595
2003 12 19.24471 01 38 04.76 +04 09 48.1 19.4   644 – Palomar Mountain/NEAT MPS 95595
